User: anonymous   Login
Location: Unspecified
(0.0000°N, 0.0000°E)
Time: 17:05:17
(UTC+02:00)
Language:

Cosmos 773 Rocket - Orbit

View from above orbital plane
View from above orbital plane
View from above satellite
View from above satellite

Ground track
Ground track

The orbit data is extracted from the following two-line orbital elements,

1 08344U 75094B   16239.51498296  .00000043  00000-0  22377-4 0  9991
2 08344  74.0581 308.5956 0023068 283.4328  76.4256 14.39063421143293
Epoch (UTC): 26 August 2016 12:21:34
Eccentricity: 0.0023068
inclination: 74.0581°
perigee height: 745 km
apogee height: 778 km
right ascension of ascending node: 308.5956°
argument of perigee: 283.4328°
revolutions per day: 14.39063421
mean anomaly at epoch: 76.4256°
orbit number at epoch: 14329

The dashed part of the orbit path shows where the satellite is in the earth's shadow,  

DLR